Location: Mount Graham
(32.7016°N, 109.8912°W)
Time: 12:51:56
(UTC-07:00)

Cosmos 1340 - Visible Passes

Search period start: 23 November 2014 00:00
Search period end: 03 December 2014 00:00
Orbit: 520 x 526 km, 81.2° (Epoch: 22 November)

Date Brightness Start Highest point End Pass type
(mag) Time Alt. Az. Time Alt. Az. Time Alt. Az.
23 Nov 2.8 05:59:17 10° S 06:03:07 81° E 06:06:59 10° N visible
23 Nov 4.3 17:35:46 10° NNW 17:39:26 41° W 17:43:04 10° SSW visible
24 Nov 3.0 05:46:36 10° S 05:50:25 71° E 05:54:15 10° NNE visible
25 Nov 3.2 05:33:55 10° S 05:37:42 61° E 05:41:30 10° NNE visible
26 Nov 3.5 05:21:14 10° S 05:24:58 52° E 05:28:44 10° NNE visible
27 Nov 3.8 05:08:34 10° SSE 05:12:14 45° E 05:15:56 10° NNE visible
28 Nov 4.0 04:55:54 10° SSE 04:59:29 39° E 05:03:06 10° NNE visible
29 Nov 4.3 04:43:14 10° SSE 04:46:44 34° E 04:50:15 10° NNE visible
29 Nov 4.6 06:21:40 10° W 06:22:50 11° WNW 06:24:01 10° NW visible
